Location: Nied?wied?
(53.3665°N, 14.8184°E)
Time: 21:48:37
(UTC+00:00)

SL-8 Rocket - Pass Details

Date: 03 March 2021
Orbit: 957 x 991 km, 82.9° (Epoch: 12 April)

Event Time Altitude Azimuth Distance (km) Brightness Sun altitude
Rises 18:07:53 0° 167° (SSE) 3,668 6.8 -13.5°
Reaches altitude 10° 18:10:29 10° 162° (SSE) 2,720 6.1 -13.9°
Maximum altitude 18:16:23 47° 90° (E) 1,264 4.2 -14.7°
Drops below altitude 10° 18:22:17 10° 19° (NNE) 2,715 6.2 -15.6°
Sets 18:24:52 0° 14° (NNE) 3,662 7.0 -16.0°
